Thermopolis, WY

5:23 AM MST on November 24, 2017 (GMT -0700)
Thermopolis

Weather History for KTBX - November, 2012

Change the Weather History Date:

Thursday, November 22, 2012

  Actual Average (KWRL) Record (KWRL)
Temperature  
Mean Temperature 30 °F -  
Max Temperature 35 °F 38 °F 66 °F (2006)
Min Temperature 24 °F 15 °F -16 °F (2013)
Degree Days  
Heating Degree Days 36    
Moisture  
Dew Point 12 °F    
Average Humidity 55    
Maximum Humidity 100    
Minimum Humidity 25    
Precipitation  
Precipitation 0.00 in - - ()
Sea Level Pressure  
Sea Level Pressure 30.28 in    
Wind  
Wind Speed 14 mph ()    
Max Wind Speed 36 mph    
Max Gust Speed 45 mph    
Visibility 9.3 miles    
Events Fog , Snow    
Averages and records for this station are not official NWS values.
T = Trace of Precipitation, MM = Missing Value Source: Averaged Metar Reports

Daily Weather History Graph

Daily Weather History Graph

Search for Another Location

Airport or City:

Trip Planner

Search our weather history database for the weather conditions in past years. The results will help you decide how hot, cold, wet, or windy it might be!

Date:

Astronomy

Nov. 22, 2012 Rise Set
Actual Time 7:16 AM MST 4:42 PM MST
Civil Twilight 6:44 AM MST 5:13 PM MST
Nautical Twilight 6:09 AM MST 5:48 PM MST
Astronomical Twilight 5:35 AM MST 6:22 PM MST
Moon 1:37 PM MST (11/22) 1:30 AM MST (11/22)
Length of Visible Light 10h 28m
Length of Day
9h 26m
Waxing Gibbous, 72% of the Moon is Illuminated
Nov 22
Waxing Gibbous
Nov 28
Full
Dec 6
Last Quarter
Dec 13
New
Dec 19
First Quarter

Hourly Weather History & Observations

Time (MST) Temp. Windchill Dew Point Humidity Pressure Visibility Wind Dir Wind Speed Gust Speed Precip Events Conditions
12:15 AM 33.8 °F 21.6 °F 24.8 °F 70% 30.00 in 10.0 mi WSW 23.0 mph 27.6 mph N/A   Clear
12:35 AM 35.6 °F 23.7 °F 23.0 °F 60% 30.01 in 10.0 mi West 24.2 mph - N/A   Scattered Clouds
12:55 AM 33.8 °F 19.0 °F 21.2 °F 60% 30.00 in 10.0 mi West 35.7 mph 42.6 mph N/A   Mostly Cloudy
1:15 AM 33.8 °F 19.2 °F 19.4 °F 56% 30.01 in 10.0 mi West 34.5 mph 43.7 mph N/A   Mostly Cloudy
1:35 AM 26.6 °F 12.7 °F 26.6 °F 100% 30.02 in 0.2 mi NW 20.7 mph 28.8 mph N/A Fog Light Freezing Fog
1:55 AM 26.6 °F 15.2 °F 24.8 °F 93% 30.03 in 10.0 mi WNW 13.8 mph - N/A   Mostly Cloudy
2:15 AM 32.0 °F 17.4 °F 14.0 °F 48% 30.03 in 10.0 mi WSW 31.1 mph 44.9 mph N/A   Scattered Clouds
2:35 AM 26.6 °F 14.3 °F 23.0 °F 86% 30.04 in 0.2 mi WNW 16.1 mph 27.6 mph N/A Snow Light Snow
2:55 AM 26.6 °F 13.8 °F 21.2 °F 80% 30.04 in 0.5 mi WNW 17.3 mph 24.2 mph N/A Fog Light Freezing Fog
3:15 AM 24.8 °F 11.5 °F 23.0 °F 93% 30.08 in 0.2 mi NW 17.3 mph 34.5 mph N/A Snow Light Snow
3:35 AM 26.6 °F - 24.8 °F 93% 30.09 in - North - - N/A   Overcast
3:55 AM 26.6 °F - 24.8 °F 93% 30.10 in - North - - N/A   Overcast
4:15 AM 26.6 °F - 24.8 °F 93% 30.09 in - North - - N/A   Overcast
4:35 AM 26.6 °F - 24.8 °F 93% 30.10 in - North - - N/A   Overcast
4:55 AM 24.8 °F 11.9 °F 23.0 °F 93% 30.11 in - NNW 16.1 mph - N/A   Mostly Cloudy
5:15 AM 24.8 °F 14.6 °F 23.0 °F 93% 30.12 in - NNW 10.4 mph - N/A   Unknown
5:35 AM 24.8 °F 16.1 °F 23.0 °F 93% 30.13 in - NNW 8.1 mph - N/A   Unknown
5:55 AM 26.6 °F 22.6 °F 21.2 °F 80% 30.14 in - WNW 3.5 mph - N/A   Clear
6:15 AM 28.4 °F - 19.4 °F 69% 30.16 in - Calm Calm - N/A   Clear
6:35 AM 28.4 °F - 19.4 °F 69% 30.15 in 10.0 mi Calm Calm - N/A   Clear
7:15 AM 26.6 °F - 19.4 °F 74% 30.18 in 10.0 mi Calm Calm - N/A   Clear
7:35 AM 26.6 °F 16.8 °F 19.4 °F 74% 30.19 in 10.0 mi North 10.4 mph - N/A   Clear
7:55 AM 24.8 °F 15.3 °F 19.4 °F 80% 30.20 in 10.0 mi North 9.2 mph - N/A   Scattered Clouds
8:15 AM 26.6 °F 20.0 °F 19.4 °F 74% 30.21 in 10.0 mi NNW 5.8 mph - N/A   Scattered Clouds
8:35 AM 24.8 °F 14.0 °F 17.6 °F 74% 30.22 in 10.0 mi NNW 11.5 mph - N/A   Clear
8:55 AM 26.6 °F 18.2 °F 14.0 °F 59% 30.24 in 10.0 mi NW 8.1 mph - N/A   Clear
9:15 AM 26.6 °F 18.2 °F 14.0 °F 59% 30.25 in 10.0 mi NW 8.1 mph - N/A   Clear
9:35 AM 26.6 °F 21.2 °F 14.0 °F 59% 30.26 in 10.0 mi NW 4.6 mph - N/A   Clear
9:55 AM 28.4 °F 23.3 °F 12.2 °F 51% 30.27 in 10.0 mi NNW 4.6 mph - N/A   Clear
10:15 AM 28.4 °F 19.7 °F 12.2 °F 51% 30.28 in 10.0 mi NNW 9.2 mph - N/A   Mostly Cloudy
10:35 AM 28.4 °F 19.7 °F 12.2 °F 51% 30.30 in 10.0 mi NW 9.2 mph - N/A   Overcast
10:55 AM 28.4 °F 18.5 °F 10.4 °F 47% 30.30 in 10.0 mi NW 11.5 mph - N/A   Scattered Clouds
11:15 AM 28.4 °F 17.0 °F 10.4 °F 47% 30.31 in 10.0 mi NNW 15.0 mph - N/A   Clear
11:35 AM 28.4 °F 18.0 °F 12.2 °F 51% 30.32 in 10.0 mi West 12.7 mph 18.4 mph N/A   Clear
11:55 AM 30.2 °F 19.8 °F 12.2 °F 47% 30.32 in 10.0 mi West 13.8 mph - N/A   Clear
12:15 PM 30.2 °F 19.8 °F 8.6 °F 40% 30.32 in 10.0 mi West 13.8 mph 23.0 mph N/A   Clear
12:35 PM 30.2 °F 18.9 °F 8.6 °F 40% 30.32 in 10.0 mi West 16.1 mph 27.6 mph N/A   Clear
12:55 PM 30.2 °F 17.8 °F 8.6 °F 40% 30.31 in 10.0 mi West 19.6 mph - N/A   Clear
1:15 PM 30.2 °F 19.8 °F 8.6 °F 40% 30.33 in 10.0 mi West 13.8 mph 19.6 mph N/A   Clear
1:35 PM 30.2 °F 17.1 °F 5.0 °F 34% 30.32 in 10.0 mi NW 21.9 mph - N/A   Clear
1:55 PM 30.2 °F 20.2 °F 1.4 °F 29% 30.34 in 10.0 mi NW 12.7 mph 24.2 mph N/A   Clear
2:15 PM 30.2 °F 17.8 °F 1.4 °F 29% 30.34 in 10.0 mi NW 19.6 mph - N/A   Clear
2:35 PM 30.2 °F 20.8 °F -0.4 °F 27% 30.35 in 10.0 mi WNW 11.5 mph 17.3 mph N/A   Clear
2:55 PM 30.2 °F 23.4 °F -2.2 °F 25% 30.35 in 10.0 mi NW 6.9 mph - N/A   Clear
3:35 PM 30.2 °F 19.3 °F -0.4 °F 27% 30.36 in 10.0 mi NNW 15.0 mph - N/A   Clear
3:55 PM 30.2 °F 19.3 °F -0.4 °F 27% 30.37 in 10.0 mi NNW 15.0 mph - N/A   Clear
4:15 PM 28.4 °F 15.4 °F -0.4 °F 29% 30.38 in 10.0 mi NNW 19.6 mph - N/A   Clear
4:35 PM 28.4 °F 16.6 °F 1.4 °F 31% 30.39 in 10.0 mi NNW 16.1 mph - N/A   Clear
5:15 PM 26.6 °F 14.3 °F -0.4 °F 31% 30.40 in 10.0 mi NNW 16.1 mph - N/A   Clear
5:35 PM 26.6 °F 15.2 °F -0.4 °F 31% 30.40 in 10.0 mi NNW 13.8 mph - N/A   Clear
5:55 PM 26.6 °F 15.2 °F -0.4 °F 31% 30.41 in 10.0 mi NNW 13.8 mph - N/A   Clear
6:15 PM 26.6 °F 14.7 °F 1.4 °F 34% 30.41 in 10.0 mi NNW 15.0 mph - N/A   Clear
7:15 PM 26.6 °F 14.3 °F 5.0 °F 40% 30.44 in 10.0 mi North 16.1 mph - N/A   Clear
7:35 PM 26.6 °F 14.3 °F 8.6 °F 47% 30.44 in 10.0 mi North 16.1 mph - N/A   Clear
7:55 PM 26.6 °F 14.3 °F 5.0 °F 40% 30.45 in 10.0 mi North 16.1 mph - N/A   Clear
8:15 PM 26.6 °F 14.3 °F 5.0 °F 40% 30.46 in 10.0 mi North 16.1 mph - N/A   Clear
8:35 PM 24.8 °F 12.4 °F 5.0 °F 43% 30.47 in 10.0 mi North 15.0 mph - N/A   Clear
8:55 PM 26.6 °F 14.7 °F 5.0 °F 40% 30.47 in 10.0 mi NNW 15.0 mph - N/A   Clear
9:15 PM 26.6 °F 15.2 °F 5.0 °F 40% 30.48 in 10.0 mi NNW 13.8 mph - N/A   Clear
9:35 PM 24.8 °F 14.0 °F 5.0 °F 43% 30.48 in 10.0 mi NNW 11.5 mph - N/A   Clear
9:55 PM 26.6 °F 16.2 °F 5.0 °F 40% 30.49 in 10.0 mi NNW 11.5 mph - N/A   Clear
10:15 PM 26.6 °F 17.5 °F 5.0 °F 40% 30.48 in 10.0 mi NNW 9.2 mph - N/A   Clear
10:35 PM 24.8 °F 17.9 °F 5.0 °F 43% 30.48 in 10.0 mi NNW 5.8 mph - N/A   Clear
10:55 PM 26.6 °F 21.2 °F 5.0 °F 40% 30.48 in 10.0 mi NNE 4.6 mph - N/A   Clear
11:15 PM 24.8 °F 19.1 °F 6.8 °F 46% 30.48 in 10.0 mi ESE 4.6 mph - N/A   Clear
11:35 PM 26.6 °F 21.2 °F 5.0 °F 40% 30.48 in 10.0 mi ESE 4.6 mph - N/A   Clear
11:55 PM 24.8 °F 17.9 °F 6.8 °F 46% 30.48 in 10.0 mi SSE 5.8 mph - N/A   Clear